Flag for United Kingdom Weather past 2 weeks in Liverpool, England, United Kingdom

Now
61 °F

Passing clouds.


Feels Like: 61 °F
Forecast: 61 / 69 °F
Wind: 13 mph from West

Location: Liverpool Airport

Current Time: Jul 30, 2014 at 3:42:26 AM

Latest Report: Jul 30, 2014 at 3:20 AM


Visibility: N/A

Pressure: 30.01 "Hg

Humidity: 72%

Dew point: 52 °F

Location of LiverpoolLocation

Historic Weather in Liverpool — Graph

°F

Liverpool temperature yesterday

Maximum temperature yesterday: 66 °F (at 10:50 AM)
Minimum temperature yesterday: 57 °F (at 4:50 AM)
Average temperature yesterday: 62 °F

Past Weeks' High & Low Weather Summary

 TemperatureHumidityPressure
High82 °F (Jul 25, 3:20 PM)100% (Jul 19, 5:20 AM)30.24 "Hg (Jul 19, 5:20 AM)
Low55 °F (Jul 16, 2:20 AM)35% (Jul 25, 3:50 PM)29.71 "Hg (Jul 19, 5:20 PM)
Average66 °F74%30.04 "Hg
* Reported Jul 15 2:20 AM — Jul 30 2:20 AM, Liverpool, Weather by CustomWeather, © 2014

Note: Actual official high and low records may vary slightly from our data, if they occured in-between our weather recording intervals... More about our weather records

Advertising

Liverpool weather history for previous 24 hours

 ConditionsComfort  
Time TempWeatherWind HumidityBarometerVisibility
2:20 AM
Jul 30
61 °FPassing clouds.9 mph77%30.01 "HgN/A
1:50 AM61 °FPassing clouds.8 mph77%30.01 "HgN/A
1:20 AM63 °FPassing clouds.10 mph77%30.01 "HgN/A
12:50 AM63 °FPassing clouds.9 mph77%30.01 "HgN/A
12:20 AM63 °FPassing clouds.12 mph77%30.01 "HgN/A
11:50 PM
Jul 29
63 °FPassing clouds.13 mph83%30.04 "HgN/A
11:20 PM63 °FPassing clouds.10 mph83%30.04 "HgN/A
10:50 PM63 °FPassing clouds.10 mph77%30.04 "HgN/A
10:20 PM63 °FPassing clouds.9 mph77%30.04 "HgN/A
9:50 PM63 °FScattered clouds.8 mph77%30.04 "HgN/A
9:20 PM63 °FScattered clouds.8 mph77%30.01 "HgN/A
8:50 PM63 °FScattered clouds.13 mph77%30.01 "HgN/A
8:20 PM63 °FScattered clouds.13 mph77%30.04 "HgN/A
7:50 PM63 °FScattered clouds.14 mph73%30.04 "HgN/A
7:20 PM64 °FScattered clouds.14 mph68%30.04 "HgN/A
6:50 PM64 °FScattered clouds.14 mph68%30.04 "HgN/A
6:20 PM66 °FScattered clouds.15 mph68%30.04 "HgN/A
5:50 PM64 °FScattered clouds.17 mph68%30.04 "HgN/A
5:20 PM66 °FScattered clouds.17 mph68%30.04 "HgN/A
4:50 PM66 °FScattered clouds.17 mph64%30.04 "HgN/A
4:20 PM66 °FScattered clouds.15 mph73%30.04 "HgN/A
3:50 PM64 °FScattered clouds.13 mph78%30.04 "HgN/A
3:20 PM63 °FScattered showers. Broken clouds.15 mph88%30.04 "HgN/A
2:50 PM63 °FScattered showers. Broken clouds.13 mph94%30.04 "Hg6 mi
2:20 PM64 °FSprinkles. Broken clouds.17 mph83%30.04 "Hg5 mi
1:50 PM64 °FScattered showers. Broken clouds.16 mph83%30.04 "HgN/A
1:20 PM64 °FScattered showers. Broken clouds.13 mph83%30.04 "HgN/A
12:50 PM64 °FScattered showers. Broken clouds.14 mph83%30.04 "HgN/A
12:20 PM63 °FScattered showers. Partly sunny.13 mph83%30.04 "HgN/A
11:50 AM64 °FScattered clouds.10 mph78%30.07 "HgN/A
11:20 AM64 °FScattered clouds.13 mph78%30.07 "HgN/A
10:50 AM66 °FScattered clouds.14 mph73%30.07 "HgN/A
10:20 AM64 °FBroken clouds.12 mph78%30.07 "HgN/A
9:50 AM63 °FBroken clouds.12 mph83%30.07 "HgN/A
9:20 AM64 °FBroken clouds.12 mph78%30.04 "HgN/A
8:50 AM63 °FScattered clouds.9 mph83%30.04 "HgN/A
8:20 AM61 °FScattered clouds.8 mph88%30.04 "HgN/A
7:50 AM61 °FScattered clouds.8 mph88%30.07 "HgN/A
7:20 AM61 °FPassing clouds.8 mph88%30.07 "HgN/A
6:50 AM59 °FPassing clouds.5 mph94%30.07 "HgN/A
6:20 AM59 °FPassing clouds.7 mph94%30.07 "HgN/A
5:50 AM57 °FPassing clouds.8 mph94%30.04 "HgN/A
5:20 AM57 °FPassing clouds.7 mph94%30.04 "HgN/A
4:50 AM57 °FPassing clouds.7 mph94%30.07 "HgN/A
3:50 AM59 °FPassing clouds.6 mph88%30.07 "HgN/A
3:20 AM59 °FPassing clouds.7 mph88%30.07 "HgN/A
Weather by CustomWeather, © 2014

See weather overviewHow to use our weather pages